1500462000.55,63754,19.75,74554.5,26.45,6.11,8.79,0,*4B
1500462001.78,63755,19.75,74554.3,26.49,5.55,8.05,0,*4E
1500462002.99,63756,19.75,74554.3,26.55,5.51,8.19,0,*49
1500462004.19,63757,19.75,74558.0,26.55,6.33,8.87,0,*48
1500462005.4,63758,19.75,74554.3,26.59,4.67,7.37,0,*4C
1500462006.6,63759,19.69,74552.0,26.59,2.61,5.19,0,*43
1500462007.82,63760,19.75,74556.8,26.59,2.69,5.19,0,*41
1500462009.03,63761,19.75,74556.5,26.59,4.11,6.69,0,*4D
1500462010.27,63762,19.69,74552.3,26.59,3.33,5.89,0,*44
1500462011.49,63763,19.75,74552.8,26.61,4.15,6.61,0,*48
1500462012.7,63764,19.75,74552.8,26.63,4.19,6.65,0,*45
1500462013.89,63765,19.75,74554.8,26.63,4.89,7.45,0,*4E
1500462015.09,63766,19.75,74554.8,26.67,4.81,7.11,0,*40
1500462016.31,63767,19.75,74558.5,26.67,3.07,5.49,0,*47
1500462017.52,63768,19.75,74558.3,26.67,2.85,5.07,0,*49
1500462018.75,63769,19.75,74558.3,26.67,2.73,4.97,0,*49
1500462019.96,63770,19.75,74552.5,26.69,5.07,7.27,0,*43
1500462021.19,63771,19.75,74554.3,26.71,4.23,6.53,0,*4E
1500462022.42,63772,19.75,74554.3,26.71,5.71,7.87,0,*43
1500462023.63,63773,19.75,74556.0,26.77,6.39,8.45,0,*4A
1500462024.86,63774,19.69,74552.8,26.79,5.93,7.97,0,*40
1500462026.07,63775,19.75,74556.0,26.83,5.45,7.55,0,*41
1500462027.27,63776,19.75,74554.0,26.85,5.19,7.23,0,*4C
1500462028.45,63777,19.75,74554.3,26.85,3.89,5.95,0,*4D
1500462029.7,63778,19.69,74552.5,26.87,4.63,6.69,0,*43
1500462030.9,63779,19.75,74554.8,26.89,4.45,6.39,0,*4D
1500462032.11,63780,19.75,74556.5,26.89,4.53,6.51,0,*42
1500462033.34,63781,19.75,74552.5,26.91,4.89,6.87,0,*46
1500462034.52,63782,19.75,74556.3,26.93,4.27,6.25,0,*4B
1500462035.77,63783,19.75,74556.5,26.91,4.75,6.61,0,*4F
1500462036.96,63784,19.75,74552.0,26.93,5.27,7.09,0,*43
1500462038.16,63785,19.75,74556.8,26.95,5.07,7.01,0,*4E
1500462039.41,63786,19.75,74556.0,26.99,4.79,6.61,0,*4E
1500462040.62,63787,19.75,74554.3,27.03,3.93,5.77,0,*4A
1500462041.83,63788,19.75,74554.3,27.05,4.27,6.03,0,*4B
1500462043.01,63789,19.75,74552.5,27.03,4.15,6.11,0,*4E
1500462044.24,63790,19.75,74554.5,27.05,2.69,4.57,0,*4D
1500462045.44,63791,19.75,74554.8,27.05,2.35,4.27,0,*42
1500462046.65,63792,19.75,74554.8,27.03,2.21,3.93,0,*4A
1500462047.88,63793,19.75,74552.5,27.03,2.01,3.79,0,*4D
1500462049.09,63794,19.75,74552.5,27.03,2.91,4.59,0,*46
1500462050.31,63795,19.75,74554.0,27.03,3.75,5.33,0,*41
1500462051.51,63796,19.75,74556.0,27.03,3.19,4.85,0,*44
1500462052.73,63797,19.75,74554.5,27.03,1.29,2.91,0,*47
1500462053.94,63798,19.75,74552.8,27.03,0.29,1.97,0,*7C
1500462055.21,63799,19.75,74554.3,26.95,1.63,3.41,0,*45
1500462056.45,63800,19.75,74556.0,26.95,3.67,5.33,0,*4F
1500462057.7,63801,19.75,74556.8,26.99,4.75,6.39,0,*4F
1500462058.88,63802,19.75,74552.0,27.03,5.95,7.41,0,*4F
1500462060.1,63803,19.75,74556.8,27.07,6.87,8.45,0,*41
1500462061.3,63804,19.75,74552.3,27.09,5.15,6.75,0,*4D
1500462062.47,63805,19.75,74556.8,27.15,5.45,7.05,0,*42
1500462063.65,63806,19.75,74554.5,27.19,4.11,5.59,0,*46
1500462064.86,63807,19.75,74554.0,27.19,4.89,6.39,0,*43
1500462066.11,63808,19.75,74552.3,27.21,4.63,6.13,0,*4B
1500462067.32,63809,19.75,74554.0,27.21,4.07,5.59,0,*45
1500462068.55,63810,19.75,74552.5,27.21,3.53,5.11,0,*47
1500462069.75,63811,19.75,74554.3,27.23,5.55,7.05,0,*43
1500462071.01,63812,19.75,74554.5,27.25,3.23,4.75,0,*45
1500462072.21,63813,19.75,74554.5,27.27,4.41,5.81,0,*4F
1500462073.43,63814,19.75,74552.3,27.25,4.81,6.13,0,*4E
1500462074.66,63815,19.75,74554.0,27.27,4.63,5.85,0,*4D
1500462075.86,63816,19.75,74552.3,27.31,6.21,7.47,0,*41
1500462077.07,63817,19.75,74552.5,27.33,6.21,7.47,0,*42
1500462078.31,63818,19.75,74552.3,27.33,4.75,5.81,0,*46
1500462079.54,63819,19.75,74552.5,27.43,4.75,5.99,0,*49
1500462080.75,63820,19.75,74552.8,27.39,4.33,5.49,0,*41
1500462082.01,63821,19.75,74552.5,27.39,3.49,4.63,0,*43
1500462083.26,63822,19.75,74552.5,27.39,1.59,2.69,0,*4F
1500462084.45,63823,19.75,74552.3,27.33,0.33,1.41,0,*70
1500462085.66,63824,19.75,74554.0,27.29,-1.71,-0.61,0,*78
1500462086.88,63825,19.75,74552.0,27.19,-3.47,-2.23,0,*49
1500462088.1,63826,19.75,74554.0,27.11,-2.47,-1.25,0,*46
1500462089.32,63827,19.75,74552.3,27.07,-2.91,-1.99,0,*4C
1500462090.59,63828,19.75,74554.5,26.95,-3.71,-2.59,0,*49
1500462091.77,63829,19.75,74556.8,26.89,-2.35,-1.25,0,*4C
1500462093.04,63830,19.75,74554.8,26.83,-2.59,-1.39,0,*49
1500462094.28,63831,19.75,74554.5,26.79,-1.91,-0.77,0,*71
1500462095.54,63832,19.75,74554.0,26.71,-0.89,0.21,0,*6C
1500462096.82,63833,19.75,74554.8,26.65,-2.07,-1.05,0,*46
1500462098.05,63834,19.75,74554.3,26.61,-1.51,-0.27,0,*74
1500462099.3,63835,19.75,74554.5,26.57,-1.43,-0.19,0,*7E
1500462100.55,63836,19.75,74558.0,26.49,-1.91,-0.77,0,*75
1500462101.78,63837,19.75,74558.3,26.45,-3.23,-1.95,0,*4E
1500462103.0,63838,19.75,74554.3,26.39,-1.95,-0.81,0,*71
1500462104.19,63839,19.75,74554.8,26.35,-3.39,-2.15,0,*47
1500462105.4,63840,19.75,74556.5,26.27,-2.47,-1.21,0,*46
1500462106.65,63841,19.75,74556.0,26.21,-1.01,0.41,0,*5A
1500462107.89,63842,19.75,74558.8,26.21,-0.93,0.17,0,*60
1500462109.13,63843,19.75,74556.3,26.15,-2.63,-1.43,0,*46
1500462110.33,63844,19.75,74552.3,26.09,-1.33,0.01,0,*60
1500462111.55,63845,19.75,74554.3,26.05,-0.89,0.43,0,*6B
1500462112.78,63846,19.75,74554.8,26.03,-1.35,-0.07,0,*45
1500462114.01,63847,19.75,74558.8,25.99,-1.21,0.13,0,*59
1500462115.23,63848,19.75,74556.8,25.95,-0.07,1.29,0,*67
1500462116.46,63849,19.75,74554.0,25.91,-0.57,0.75,0,*6F
1500462117.68,63850,19.75,74554.8,25.89,-0.23,1.21,0,*5D
1500462118.92,63851,19.75,74554.8,25.87,-0.73,0.47,0,*66
1500462120.14,63852,19.75,74554.8,25.81,-1.09,0.17,0,*5A
1500462121.36,63853,19.75,74554.0,25.77,-0.93,0.25,0,*61
1500462122.55,63854,19.75,74556.3,25.73,-4.49,-3.11,0,*48
1500462123.74,63855,19.75,74558.3,25.67,-4.21,-2.83,0,*48
1500462124.96,63856,19.75,74556.3,25.59,-3.03,-1.83,0,*42
1500462126.16,63857,19.75,74552.3,25.55,-2.95,-1.67,0,*4B
1500462127.35,63858,19.75,74556.3,25.51,-2.91,-1.71,0,*43
1500462128.54,63859,19.75,74554.8,25.47,-2.91,-1.59,0,*4F
1500462129.79,63860,19.75,74554.5,25.41,-2.63,-1.29,0,*49
1500462131.03,63861,19.75,74558.0,25.35,-3.47,-2.27,0,*41
1500462132.25,63862,19.75,74556.0,25.29,-3.63,-2.39,0,*46
1500462133.52,63863,19.75,74556.3,25.23,-2.47,-1.35,0,*45
1500462134.73,63864,19.75,74558.0,25.21,-3.03,-1.87,0,*48
1500462135.98,63865,19.75,74558.3,25.15,-2.63,-1.67,0,*47
1500462137.25,63866,19.75,74558.5,25.07,-2.47,-1.47,0,*43
1500462138.49,63867,19.75,74554.3,25.07,-2.31,-1.47,0,*43
1500462139.67,63868,19.75,74558.0,25.01,-1.59,-0.77,0,*75
1500462140.91,63869,19.75,74554.0,24.99,-2.79,-1.83,0,*4F
1500462142.11,63870,19.75,74554.3,24.93,-3.27,-2.39,0,*45
1500462143.33,63871,19.75,74556.0,24.89,-2.03,-1.29,0,*4A
1500462144.54,63872,19.75,74552.5,24.85,-0.97,-0.37,0,*44
1500462145.79,63873,19.75,74554.0,24.81,-2.47,-1.83,0,*40
1500462146.98,63874,19.75,74554.8,24.77,-2.19,-1.59,0,*42
1500462148.22,63875,19.75,74554.5,24.75,-2.51,-2.03,0,*41
1500462149.45,63876,19.75,74554.5,24.69,-3.43,-2.91,0,*46
1500462150.72,63877,19.75,74556.5,24.65,-2.51,-2.11,0,*41
1500462151.94,63878,19.75,74556.3,24.61,-2.19,-1.71,0,*43
1500462153.16,63879,19.75,74554.3,24.55,-1.29,-1.01,0,*42
1500462154.38,63880,19.75,74550.8,24.55,-1.29,-1.01,0,*44
1500462155.59,63881,19.75,74552.5,24.53,-2.43,-2.27,0,*4B
1500462156.84,63882,19.75,74554.8,24.47,-4.01,-4.01,0,*4F
1500462158.03,63883,19.75,74550.0,24.41,-3.35,-3.35,0,*48
1500462159.23,63884,19.75,74552.8,24.37,-3.91,-4.17,0,*47
1500462160.46,63885,19.75,74552.3,24.31,-3.71,-3.87,0,*40
1500462161.65,63886,19.75,74558.0,24.25,-2.31,-2.43,0,*4A
1500462162.88,63887,19.75,74554.5,24.21,-1.05,-1.21,0,*4C
1500462164.09,63888,19.75,74554.5,24.21,-0.93,-1.21,0,*7D
1500462165.3,63889,19.75,74552.3,24.17,-2.39,-2.75,0,*49
1500462166.54,63890,19.75,74554.5,24.15,-1.51,-2.07,0,*4B
1500462167.75,63891,19.75,74552.8,24.11,-4.37,-4.93,0,*40
1500462168.96,63892,19.75,74558.0,24.07,-3.75,-4.21,0,*4C
1500462170.23,63893,19.75,74552.8,24.01,-3.51,-4.01,0,*4F
1500462171.49,63894,19.75,74554.3,23.97,-3.63,-4.29,0,*4B
1500462172.7,63895,19.75,74554.3,23.91,-2.99,-3.43,0,*43
1500462173.95,63896,19.75,74554.0,23.89,-2.47,-3.11,0,*4D
1500462175.14,63897,19.75,74554.0,23.83,-3.35,-4.13,0,*47
1500462176.34,63898,19.75,74554.0,23.79,-2.39,-3.23,0,*44
1500462177.53,63899,19.75,74552.3,23.77,-0.53,-1.17,0,*70
1500462178.74,63900,19.75,74552.0,23.75,-0.49,-1.21,0,*7D
1500462179.97,63901,19.75,74552.8,23.75,-0.45,-1.43,0,*74
1500462181.21,63902,19.75,74558.0,23.71,-2.07,-2.91,0,*4B
1500462182.45,63903,19.75,74554.8,23.69,-2.55,-3.51,0,*49
1500462183.63,63904,19.75,74558.5,23.65,-2.23,-3.19,0,*4F
1500462184.83,63905,19.75,74556.8,23.63,-3.23,-4.17,0,*40
1500462186.07,63906,19.75,74558.0,23.57,-1.47,-2.55,0,*44
1500462187.29,63907,19.75,74556.3,23.55,-0.57,-1.63,0,*71
1500462188.53,63908,19.75,74552.0,23.53,-0.27,-1.35,0,*7C
1500462189.76,63909,19.75,74556.8,23.53,-0.85,-1.87,0,*7C
1500462191.0,63910,19.75,74556.5,23.51,-2.27,-3.43,0,*46
1500462192.21,63911,19.75,74552.3,23.47,-1.67,-2.71,0,*47
1500462193.45,63912,19.75,74554.5,23.45,-0.69,-1.87,0,*73
1500462194.69,63913,19.75,74554.0,23.45,-0.33,-1.43,0,*75
1500462195.86,63914,19.75,74554.0,23.43,-0.15,-1.25,0,*70
1500462197.08,63915,19.75,74552.8,23.41,0.33,-0.77,0,*6C
1500462198.29,63916,19.75,74558.3,23.41,-0.07,-1.17,0,*42
1500462199.55,63917,19.75,74558.3,23.41,-0.85,-2.03,0,*7F
1500462200.77,63918,19.75,74552.3,23.39,-0.81,-1.91,0,*73
1500462202.04,63919,19.75,74554.8,23.37,-1.43,-2.55,0,*48
1500462203.26,63920,19.75,74558.3,23.33,-1.25,-2.35,0,*40
1500462204.48,63921,19.75,74552.3,23.31,-1.59,-2.67,0,*4F
1500462205.72,63922,19.75,74552.8,23.29,-1.91,-3.03,0,*42
1500462206.94,63923,19.75,74552.8,23.27,-2.67,-3.79,0,*4A
1500462208.16,63924,19.75,74556.0,23.23,-3.55,-4.65,0,*43
1500462209.36,63925,19.75,74552.8,23.19,-3.15,-4.29,0,*47
1500462210.6,63926,19.75,74556.0,23.15,-3.67,-4.65,0,*45
1500462211.82,63927,19.75,74554.5,23.11,-3.03,-4.21,0,*42
1500462213.01,63928,19.75,74552.5,23.09,-2.91,-4.09,0,*44
1500462214.23,63929,19.75,74554.0,23.05,-3.63,-4.65,0,*4F
1500462215.47,63930,19.75,74556.5,23.05,-2.71,-3.71,0,*47
1500462216.68,63931,19.75,74556.3,23.01,-1.35,-2.19,0,*4E
1500462217.9,63932,19.75,74558.3,23.01,-1.51,-2.51,0,*43
1500462219.14,63933,19.75,74556.5,22.99,-1.39,-2.43,0,*4F
1500462220.36,63934,19.75,74554.0,22.99,-0.29,-1.21,0,*7F
1500462221.58,63935,19.75,74556.3,22.99,0.17,-0.81,0,*65
1500462222.8,63936,19.75,74552.0,22.99,0.67,-0.33,0,*68
1500462224.01,63937,19.75,74554.5,23.01,-0.19,-1.13,0,*7E
1500462225.23,63938,19.75,74554.3,23.01,1.89,1.17,0,*4D
1500462226.48,63939,19.75,74554.0,23.03,4.05,3.23,0,*4A
1500462227.71,63940,19.75,74554.5,23.11,4.53,3.79,0,*4B
1500462228.91,63941,19.75,74558.3,23.17,5.37,4.81,0,*4F
1500462230.12,63942,19.75,74552.3,23.23,6.29,5.77,0,*4F
1500462231.35,63943,19.75,74556.3,23.33,6.47,6.07,0,*43
1500462232.55,63944,19.75,74552.8,23.41,7.41,7.05,0,*45
1500462233.8,63945,19.75,74554.5,23.51,7.65,7.19,0,*4E
1500462234.99,63946,19.75,74554.8,23.61,5.59,5.23,0,*48
1500462236.19,63947,19.75,74554.0,23.65,5.73,5.37,0,*40
1500462237.41,63948,19.75,74554.8,23.71,6.07,5.73,0,*4A
1500462238.6,63949,19.75,74558.8,23.75,7.45,7.01,0,*4F
1500462239.84,63950,19.75,74554.8,23.89,7.61,7.29,0,*48
1500462241.07,63951,19.75,74554.5,23.95,7.47,7.11,0,*4B
1500462242.33,63952,19.75,74554.0,24.01,7.77,7.47,0,*42
1500462243.53,63953,19.75,74556.3,24.11,8.47,8.19,0,*4A
1500462244.77,63954,19.75,74556.3,24.17,7.87,7.77,0,*4F
1500462245.94,63955,19.75,74556.0,24.29,8.45,8.23,0,*4C
1500462247.17,63956,19.75,74558.3,24.35,8.65,8.59,0,*4D
1500462248.39,63957,19.75,74556.3,24.43,9.43,9.39,0,*4F
1500462249.62,63958,19.75,74556.8,24.53,9.07,8.97,0,*44
1500462250.83,63959,19.75,74556.3,24.61,9.25,9.25,0,*4C
1500462252.08,63960,19.75,74558.3,24.69,8.37,8.29,0,*41
1500462253.26,63961,19.75,74556.5,24.77,7.51,7.45,0,*45
1500462254.47,63962,19.75,74558.5,24.83,6.29,6.25,0,*44
1500462255.65,63963,19.75,74558.0,24.85,3.89,3.85,0,*43
1500462256.89,63964,19.75,74558.8,24.85,2.55,2.51,0,*4C
1500462258.07,63965,19.75,74556.8,24.85,2.91,2.99,0,*41
1500462259.28,63966,19.75,74556.3,24.85,2.91,2.89,0,*43
1500462260.51,63967,19.75,74562.0,24.87,2.61,2.59,0,*42
1500462261.69,63968,19.75,74558.5,24.85,3.85,3.93,0,*43
1500462262.93,63969,19.75,74556.0,24.87,3.67,3.89,0,*47
1500462264.19,63970,19.75,74554.8,24.87,3.07,3.33,0,*48
1500462265.39,63971,19.75,74560.3,24.89,3.63,3.97,0,*4B
1500462266.59,63972,19.75,74556.3,24.91,4.19,4.49,0,*4F
1500462267.79,63973,19.75,74558.8,24.93,3.37,3.63,0,*48
1500462269.03,63974,19.75,74558.5,24.93,2.51,2.69,0,*45
1500462270.26,63975,19.75,74558.0,24.93,1.47,2.05,0,*4A
1500462271.44,63976,19.75,74556.3,24.97,-0.69,-0.11,0,*47
1500462272.65,63977,19.75,74556.8,24.93,-0.53,0.13,0,*64
1500462273.84,63978,19.75,74558.3,24.89,-0.33,0.63,0,*61
1500462275.04,63979,19.75,74558.3,24.85,-0.37,0.47,0,*6E
1500462276.26,63980,19.75,74554.3,24.85,0.59,1.47,0,*7C
1500462277.46,63981,19.75,74556.0,24.81,-0.81,0.17,0,*65
1500462278.68,63982,19.75,74558.3,24.81,-1.43,-0.19,0,*7A
1500462279.91,63983,19.75,74556.8,24.79,-0.81,0.29,0,*6D
1500462281.12,63984,19.75,74556.3,24.77,-0.69,0.47,0,*6A
1500462282.33,63985,19.75,74558.3,24.73,-0.61,0.67,0,*65
1500462283.56,63986,19.75,74558.3,24.69,-1.21,0.29,0,*52
1500462284.79,63987,19.75,74552.8,24.67,-1.01,0.41,0,*51
1500462285.99,63988,19.75,74556.8,24.67,-1.47,0.01,0,*68
1500462287.19,63989,19.75,74556.8,24.65,-1.59,0.01,0,*64
1500462288.4,63990,19.75,74556.8,24.63,-1.29,0.25,0,*5B
1500462289.61,63991,19.75,74556.5,24.59,-1.21,0.47,0,*5F
1500462290.82,63992,19.75,74554.0,24.59,-1.95,-0.33,0,*7D
1500462292.02,63993,19.75,74552.0,24.57,-2.35,-0.61,0,*7C
1500462293.26,63994,19.75,74556.8,24.53,-2.91,-1.09,0,*4E
1500462294.48,63995,19.75,74556.5,24.47,-4.53,-2.75,0,*4A
1500462295.69,63996,19.75,74552.8,24.41,-5.55,-3.71,0,*4D
1500462296.9,63997,19.75,74554.8,24.37,-5.81,-3.87,0,*4D
1500462298.14,63998,19.75,74554.8,24.31,-5.27,-3.19,0,*4F
1500462299.38,63999,19.75,74552.0,24.23,-4.57,-2.47,0,*41
1500462300.62,64000,19.75,74554.3,24.23,-4.09,-2.03,0,*44
1500462301.9,64001,19.75,74552.0,24.19,-3.59,-1.43,0,*49
1500462303.14,64002,19.75,74554.5,24.17,-4.81,-2.67,0,*43
1500462304.38,64003,19.75,74554.5,24.13,-4.69,-2.47,0,*42
1500462305.57,64004,19.75,74556.5,24.11,-4.05,-1.75,0,*4F
1500462306.75,64005,19.75,74558.0,24.07,-2.91,-0.61,0,*76
1500462307.96,64006,19.75,74554.0,24.05,-3.03,-0.65,0,*79
1500462309.2,64007,19.75,74556.0,24.01,-3.47,-1.33,0,*4E
1500462310.42,64008,19.75,74554.3,24.01,-5.39,-3.07,0,*4B
1500462311.67,64009,19.75,74558.3,23.95,-5.03,-2.71,0,*49
1500462312.92,64010,19.75,74558.3,23.91,-7.57,-5.07,0,*40
1500462314.14,64011,19.75,74556.8,23.87,-7.61,-4.99,0,*45
1500462315.36,64012,19.75,74556.5,23.79,-5.97,-3.35,0,*4D
1500462316.61,64013,19.75,74558.3,23.75,-6.23,-3.43,0,*4D
1500462317.85,64014,19.75,74554.5,23.71,-5.69,-3.03,0,*47
1500462319.05,64015,19.75,74556.5,23.69,-6.13,-3.39,0,*48
1500462320.28,64016,19.75,74552.5,23.65,-4.73,-2.07,0,*4F
1500462321.52,64017,19.75,74556.0,23.63,-5.73,-2.95,0,*42
1500462322.7,64018,19.75,74556.8,23.57,-6.13,-3.19,0,*4A
1500462323.93,64019,19.75,74556.5,23.53,-5.93,-3.11,0,*4C
1500462325.16,64020,19.75,74556.3,23.51,-6.39,-3.51,0,*43
1500462326.37,64021,19.75,74554.3,23.49,-5.89,-2.91,0,*4E
1500462327.64,64022,19.75,74556.5,23.45,-4.89,-1.99,0,*4B
1500462328.82,64023,19.75,74552.0,23.43,-4.99,-2.15,0,*4A
1500462330.06,64024,19.75,74552.3,23.41,-4.81,-1.79,0,*4F
1500462331.31,64025,19.75,74552.5,23.37,-5.39,-2.47,0,*43
1500462332.55,64026,19.75,74554.0,23.37,-4.89,-1.59,0,*46
1500462333.79,64027,19.75,74556.3,23.33,-4.13,-0.89,0,*7C
1500462334.98,64028,19.75,74554.5,23.31,-3.87,-0.65,0,*79
1500462336.16,64029,19.75,74552.3,23.31,-4.45,-1.25,0,*44
1500462337.41,64030,19.75,74556.8,23.29,-4.61,-1.39,0,*4E
1500462338.6,64031,19.75,74554.3,23.27,-4.49,-1.21,0,*42
1500462339.87,64032,19.75,74554.0,23.25,-4.85,-1.47,0,*43
1500462341.1,64033,19.75,74552.3,23.23,-4.81,-1.47,0,*40
1500462342.3,64034,19.75,74554.0,23.19,-5.97,-2.39,0,*42
1500462343.5,64035,19.75,74552.5,23.19,-5.39,-1.75,0,*4C
1500462344.74,64036,19.81,74558.8,23.15,-5.15,-1.51,0,*4B
1500462345.96,64037,19.81,74556.3,23.15,-5.35,-1.63,0,*49
1500462347.17,64038,19.75,74554.3,23.11,-4.61,-0.77,0,*76
1500462348.41,64039,19.81,74556.0,23.11,-3.71,0.33,0,*5C
1500462349.63,64040,19.75,74552.3,23.09,-3.39,0.47,0,*54
1500462350.83,64041,19.75,74552.5,23.07,-2.83,1.05,0,*6C
1500462352.09,64042,19.81,74556.0,23.07,-2.71,1.37,0,*63
1500462353.3,64043,19.75,74552.3,23.09,-3.31,0.67,0,*5D
1500462354.5,64044,19.75,74554.8,23.09,-3.31,0.79,0,*55
1500462355.71,64045,19.75,74554.0,23.09,-3.27,0.95,0,*51
1500462356.94,64046,19.75,74552.3,23.07,-3.35,0.79,0,*5D
1500462358.15,64047,19.75,74554.8,23.07,-4.33,-0.07,0,*49
1500462359.4,64048,19.75,74554.0,23.05,-4.01,0.21,0,*5C
1500462360.61,64049,19.75,74552.3,23.03,-4.41,-0.11,0,*71
1500462361.82,64050,19.75,74550.8,23.01,-4.73,-0.15,0,*7E
1500462363.02,64051,19.75,74554.0,23.01,-3.51,0.97,0,*5F
1500462364.21,64052,19.75,74552.8,22.97,-4.09,0.43,0,*51
1500462365.43,64053,19.75,74550.8,22.97,-5.03,-0.49,0,*7C
1500462366.6,64054,19.75,74552.8,22.97,-4.49,0.09,0,*6D
1500462367.85,64055,19.75,74552.3,22.95,-5.69,-1.21,0,*4B
1500462369.07,64056,19.75,74554.0,22.93,-5.07,-0.41,0,*71
1500462370.28,64057,19.75,74554.8,22.89,-5.11,-0.53,0,*7F
1500462371.52,64058,19.75,74554.8,22.87,-3.75,0.79,0,*5F
1500462372.76,64059,19.75,74554.3,22.87,-2.99,1.63,0,*67
1500462373.97,64060,19.75,74554.0,22.85,-3.07,1.71,0,*6A
1500462375.21,64061,19.75,74554.0,22.87,-2.87,1.85,0,*6B
1500462376.44,64062,19.81,74554.0,22.85,-2.51,2.21,0,*6C
1500462377.66,64063,19.75,74554.8,22.85,-3.27,1.37,0,*69
1500462378.85,64064,19.81,74554.5,22.85,-2.87,1.83,0,*6A
1500462380.06,64065,19.75,74552.0,22.83,-2.27,2.43,0,*68
1500462381.3,64066,19.75,74552.0,22.83,-2.03,2.55,0,*6A
1500462382.53,64067,19.75,74552.0,22.83,-3.59,1.13,0,*64
1500462383.78,64068,19.75,74550.5,22.85,-2.07,2.59,0,*6A
1500462384.97,64069,19.81,74552.8,22.85,-1.25,3.29,0,*6E
1500462386.18,64070,19.75,74552.3,22.85,-2.23,2.47,0,*6A
1500462387.39,64071,19.81,74552.0,22.89,-1.55,3.03,0,*64
1500462388.66,64072,19.75,74550.3,22.87,-1.09,3.49,0,*6E
1500462389.9,64073,19.75,74548.0,22.87,-1.71,2.69,0,*63
1500462391.16,64074,19.75,74550.5,22.87,-2.75,1.93,0,*65
1500462392.37,64075,19.81,74552.3,22.89,-1.55,3.03,0,*60
1500462393.58,64076,19.75,74554.5,22.89,-1.51,3.03,0,*67
1500462394.85,64077,19.81,74552.5,22.87,-2.07,2.43,0,*6D
1500462396.06,64078,19.75,74552.0,22.87,-2.31,2.35,0,*66
1500462397.29,64079,19.75,74552.5,22.89,-1.71,2.81,0,*61
1500462398.55,64080,19.81,74552.8,22.87,-1.83,2.59,0,*61
1500462399.78,64081,19.81,74556.0,22.87,-2.35,2.21,0,*61
1500462401.02,64082,19.81,74554.8,22.87,-2.11,2.31,0,*65
1500462402.26,64083,19.75,74554.3,22.87,-2.71,1.83,0,*68
1500462403.53,64084,19.81,74552.0,22.87,-2.07,2.47,0,*65
1500462404.73,64085,19.75,74552.8,22.87,-0.03,4.41,0,*62
1500462405.91,64086,19.81,74556.3,22.89,-0.33,4.11,0,*59
1500462407.09,64087,19.75,74552.8,22.93,0.97,5.45,0,*70
1500462408.3,64088,19.81,74552.3,22.97,1.93,6.21,0,*4F
1500462409.53,64089,19.81,74552.8,22.99,2.25,6.75,0,*4F
1500462410.77,64090,19.81,74552.3,23.09,3.41,7.61,0,*48
1500462411.96,64091,19.81,74552.3,23.11,4.49,8.87,0,*48
1500462413.23,64092,19.81,74558.0,23.21,4.93,9.19,0,*49
1500462414.49,64093,19.75,74552.3,23.29,4.97,9.19,0,*44
1500462415.7,64094,19.75,74552.8,23.39,4.93,9.25,0,*49
1500462416.9,64095,19.81,74552.8,23.47,5.55,9.95,0,*41
1500462418.14,64096,19.81,74552.3,23.55,6.07,10.23,0,*70
1500462419.36,64097,19.81,74554.8,23.65,5.27,9.49,0,*47
1500462420.57,64098,19.75,74550.0,23.69,5.23,9.53,0,*4B
1500462421.84,64099,19.81,74552.8,23.79,6.35,10.61,0,*76
1500462423.05,64100,19.75,74552.0,23.87,5.77,10.13,0,*76
1500462424.25,64101,19.75,74552.0,23.95,6.33,10.47,0,*76
1500462425.44,64102,19.75,74552.3,23.99,6.25,10.43,0,*7A
1500462426.68,64103,19.75,74554.5,24.09,5.77,10.05,0,*73
1500462427.89,64104,19.75,74554.0,24.17,4.97,9.21,0,*4A
1500462429.11,64105,19.81,74556.8,24.21,5.27,9.39,0,*4D
1500462430.35,64106,19.81,74554.5,24.31,6.11,10.23,0,*7A
1500462431.57,64107,19.75,74552.3,24.35,5.45,9.49,0,*49
1500462432.79,64108,19.81,74554.5,24.43,6.03,10.17,0,*75
1500462433.96,64109,19.75,74552.8,24.47,4.57,8.79,0,*42
1500462435.2,64110,19.81,74552.8,24.53,4.63,8.79,0,*48
1500462436.4,64111,19.81,74554.0,24.57,4.41,8.61,0,*44
1500462437.58,64112,19.81,74552.0,24.63,5.37,9.43,0,*41
1500462438.78,64113,19.75,74550.3,24.69,5.19,9.29,0,*4A
1500462439.98,64114,19.81,74550.8,24.75,3.79,7.97,0,*4B
1500462441.19,64115,19.81,74554.8,24.77,4.81,8.97,0,*47
1500462442.42,64116,19.81,74552.8,24.83,4.27,8.41,0,*48
1500462443.62,64117,19.81,74554.8,24.87,4.81,8.83,0,*4F
1500462444.84,64118,19.81,74556.5,24.91,5.11,8.97,0,*4A
1500462446.06,64119,19.81,74554.5,24.97,6.21,10.27,0,*7F
1500462447.25,64120,19.81,74552.3,25.05,6.97,10.89,0,*76
1500462448.47,64121,19.81,74552.3,25.09,7.05,10.95,0,*7C
1500462449.71,64122,19.81,74552.5,25.19,6.79,10.71,0,*7E
1500462450.95,64123,19.81,74554.3,25.25,6.43,10.37,0,*7B
1500462452.18,64124,19.81,74554.0,25.27,5.85,9.75,0,*49
1500462453.39,64125,19.81,74552.8,25.33,4.63,8.45,0,*46
1500462454.64,64126,19.81,74554.5,25.35,4.67,8.37,0,*42
1500462455.88,64127,19.75,74552.0,25.41,4.89,8.75,0,*46
1500462457.09,64128,19.81,74554.5,25.45,4.11,8.01,0,*4F
1500462458.27,64129,19.81,74552.3,25.47,2.91,6.75,0,*4F
1500462459.49,64130,19.81,74552.8,25.47,1.29,5.07,0,*41
1500462460.74,64131,19.81,74556.0,25.47,0.91,4.97,0,*7A
1500462461.97,64132,19.81,74556.8,25.47,3.15,6.65,0,*49
1500462463.2,64133,19.81,74554.3,25.47,2.85,6.43,0,*44
1500462464.44,64134,19.81,74558.0,25.51,3.15,6.39,0,*41
1500462465.66,64135,19.81,74554.5,25.53,2.55,6.11,0,*4D
1500462466.89,64136,19.81,74552.3,25.55,3.53,7.11,0,*4E
1500462468.13,64137,19.81,74552.0,25.57,4.11,7.61,0,*4B
1500462469.36,64138,19.81,74554.8,25.61,4.19,7.61,0,*49
1500462470.53,64139,19.81,74552.0,25.67,4.81,8.15,0,*43
1500462471.76,64140,19.81,74556.8,25.67,6.61,9.85,0,*49
1500462472.98,64141,19.81,74554.3,25.77,7.55,10.75,0,*78
1500462474.2,64142,19.81,74556.0,25.79,6.93,10.09,0,*75
1500462475.4,64143,19.81,74556.3,25.87,6.93,9.95,0,*48
1500462476.58,64144,19.81,74552.0,25.93,6.75,9.71,0,*48
1500462477.79,64145,19.81,74554.8,25.99,7.51,10.51,0,*7E
1500462478.99,64146,19.81,74558.5,26.03,8.27,11.17,0,*70
1500462480.17,64147,19.81,74556.3,26.11,8.01,10.93,0,*7B
1500462481.38,64148,19.81,74556.5,26.15,8.27,11.07,0,*78
1500462482.62,64149,19.81,74558.8,26.21,6.33,9.19,0,*43
1500462483.82,64150,19.81,74558.8,26.23,6.91,9.63,0,*4C
1500462485.0,64151,19.81,74558.0,26.27,7.29,9.99,0,*4E
1500462486.23,64152,19.75,74554.8,26.33,8.01,10.71,0,*73
1500462487.47,64153,19.81,74558.0,26.41,6.93,9.57,0,*4E
1500462488.68,64154,19.81,74558.5,26.41,4.15,6.79,0,*46
1500462489.86,64155,19.81,74556.0,26.43,4.57,7.33,0,*4C
1500462491.06,64156,19.81,74556.5,26.43,3.93,6.57,0,*43
1500462492.28,64157,19.81,74556.8,26.43,4.97,7.41,0,*47
1500462493.49,64158,19.81,74558.5,26.47,4.07,6.65,0,*42
1500462494.67,64159,19.81,74556.0,26.47,4.41,6.79,0,*4C
1500462495.93,64160,19.81,74554.8,26.49,4.01,6.43,0,*45
1500462497.19,64161,19.81,74552.8,26.49,3.45,5.77,0,*47
1500462498.4,64162,19.81,74556.5,26.47,2.55,4.89,0,*4A
1500462499.63,64163,19.81,74556.3,26.47,1.71,4.01,0,*4E
1500462500.85,64164,19.81,74556.0,26.47,3.75,6.07,0,*4B
1500462502.11,64165,19.81,74558.8,26.49,5.51,7.61,0,*45
1500462503.3,64166,19.81,74556.0,26.55,4.07,6.33,0,*4F
1500462504.53,64167,19.81,74552.8,26.55,4.67,6.65,0,*4B
1500462505.77,64168,19.81,74554.5,26.57,4.37,6.53,0,*46
1500462506.95,64169,19.81,74558.3,26.59,4.85,7.01,0,*46
1500462508.16,64170,19.81,74552.5,26.63,5.23,7.23,0,*4A
1500462509.4,64171,19.81,74556.5,26.61,4.71,6.97,0,*41
1500462510.61,64172,19.81,74554.3,26.65,3.89,6.07,0,*4F
1500462511.82,64173,19.81,74556.3,26.67,3.41,5.29,0,*47
1500462513.04,64174,19.81,74556.5,26.67,3.79,5.67,0,*41
1500462514.22,64175,19.81,74558.8,26.67,4.07,6.07,0,*4B